This is the latest recevied weather packets stored in our database for station/object SV9TNF-55. If no packets are shown the sender has not sent any weather packets the latest 10 day(s).
| Time | Temp. | Humidity | Pressure | Rain* | Wind** | Luminosity | Snow |
|---|---|---|---|---|---|---|---|
| 1788422870 | 23.89° C | 37% | 1013.4 hPa | 0 mm | 3.58 m/s, 292° | - | - |
| 1788422270 | 23.89° C | 38% | 1013.3 hPa | 0 mm | 4.02 m/s, 292° | - | - |
| 1788421670 | 23.89° C | 39% | 1013.1 hPa | 0 mm | 3.13 m/s, 315° | - | - |
| 1788421070 | 23.89° C | 39% | 1013.1 hPa | 0 mm | 3.13 m/s, 315° | - | - |
| 1788420470 | 23.33° C | 41% | 1013.1 hPa | 0 mm | 4.92 m/s, 292° | - | - |
| 1788419870 | 23.33° C | 41% | 1013.1 hPa | 0 mm | 4.92 m/s, 292° | - | - |
| 1788419269 | 23.33° C | 41% | 1013.1 hPa | 0 mm | 4.92 m/s, 292° | - | - |
| 1788418670 | 23.33° C | 42% | 1013.2 hPa | 0 mm | 4.47 m/s, 292° | - | - |
| 1788418069 | 23.89° C | 41% | 1013 hPa | 0 mm | 4.47 m/s, 292° | - | - |
| 1788417469 | 23.33° C | 43% | 1013.1 hPa | 0 mm | 4.02 m/s, 292° | - | - |
| 1788416869 | 23.33° C | 44% | 1012.9 hPa | 0 mm | 2.24 m/s, 292° | - | - |
| 1788416286 | 22.78° C | 43% | 1013 hPa | 0 mm | 3.13 m/s, 315° | - | - |
| 1788415669 | 22.78° C | 42% | 1013.1 hPa | 0 mm | 3.58 m/s, 292° | - | - |
| 1788415069 | 22.22° C | 43% | 1013.2 hPa | 0 mm | 3.13 m/s, 292° | - | - |
| 1788414468 | 22.22° C | 42% | 1013.5 hPa | 0 mm | 2.68 m/s, 292° | - | - |
| 1788413868 | 22.22° C | 41% | 1013.5 hPa | 0 mm | 2.68 m/s, 292° | - | - |
| 1788413270 | 22.22° C | 40% | 1013.5 hPa | 0 mm | 1.79 m/s, 270° | - | - |
| 1788412668 | 22.22° C | 40% | 1013.6 hPa | 0 mm | 2.68 m/s, 292° | - | - |
| 1788412068 | 22.22° C | 41% | 1013.6 hPa | 0 mm | 2.68 m/s, 292° | - | - |
| 1788411468 | 21.67° C | 41% | 1013.6 hPa | 0 mm | 1.34 m/s, 292° | - | - |
| 1788410886 | 22.22° C | 40% | 1013.6 hPa | 0 mm | 2.24 m/s, 270° | - | - |
| 1788410268 | 22.22° C | 39% | 1013.6 hPa | 0 mm | 2.68 m/s, 270° | - | - |
| 1788409668 | 22.22° C | 37% | 1013.3 hPa | 0 mm | 2.24 m/s, 292° | - | - |
| 1788409068 | 22.22° C | 36% | 1013.4 hPa | 0 mm | 2.68 m/s, 292° | - | - |
| 1788408468 | 22.22° C | 35% | 1013.4 hPa | 0 mm | 2.68 m/s, 292° | - | - |
* Rain latest hour (hover to see other rain measurements)
** Current wind speed in m/s (hover to see current wind gust speed)